[[{"header":{"parameterUnit":"m.s-1","parameterCategory":2,"la1":30.2991,"la2":30.254,"lo1":-89.0895,"lo2":-89.0444,"dy":0.0017,"dx":0.0017,"nx":28,"ny":28,"refTime":"2025-12-11T09:00:00:Z","depth":"0","parameterNumber":2,"parameterNumberName":"U-component_of_CURRENTS"},"data":[0,0,0,0,0,0,0,0,0,0,0,0,0,0,0,0,0,0,0,0,0,0,0,0,0,0,0,0,0,0,0,0,0,0,0,0,0,0,0,0,0,0,0,0,0,0,0,0,0,0,0,0,0,0,0,0,0,0,0.2688,0.2689,0,0.2784,0.2785,0.2786,0.2817,0.2817,0.2817,0.2816,0.2908,0.2911,0.2913,0,0,0,0,0,0,0,0,0,0,0,0,0,0.2539,0.2542,0.2688,0.2689,0.2691,0.2784,0.2786,0.2787,0.2817,0.2817,0.2817,0.2816,0.2907,0.291,0.2914,0,0,0,0,0,0,0,0,0,0,0,0,0,0.2615,0.2543,0.2688,0.2718,0.2722,0.2784,0.2786,0.2787,0.2817,0.2817,0.2816,0.2816,0.2906,0.291,0.2914,0.2949,0,0,0.2927,0.2928,0,0,0,0,0,0,0,0,0.2611,0.262,0.2712,0.2716,0.2721,0.279,0.2767,0.2841,0.2818,0.278,0.2816,0.2816,0.2869,0.2876,0.2894,0.2953,0.2957,0.2927,0.293,0.2931,0.2932,0,0,0,0,0,0,0,0.2606,0.2617,0.2725,0.2714,0.2719,0.273,0.274,0.2781,0.2825,0.2783,0.2786,0.2799,0.2871,0.289,0.2896,0.2958,0.2927,0.2931,0.2933,0.2935,0.3085,0.3087,0,0,0,0,0,0,0.2597,0.2612,0.2722,0.2728,0.2665,0.2733,0.2745,0.2767,0.2825,0.2833,0.2799,0.28,0.2883,0.2891,0.2899,0.2959,0.2931,0.2935,0.2937,0.3084,0.3086,0.3087,0,0,0,0,0,0,0.2594,0.2606,0.2718,0.2672,0.2687,0.2737,0.2761,0.2769,0.2788,0.2837,0.2845,0.281,0.2883,0.2894,0.2942,0.2962,0.2937,0.2941,0.3082,0.3085,0.3087,0.3068,0,0,0,0,0,0,0.2589,0.2605,0.2616,0.2672,0.269,0.2759,0.2762,0.2771,0.2797,0.2799,0.2849,0.2857,0.2883,0.2936,0.2946,0.2967,0.2944,0.308,0.3083,0.3086,0.3066,0.3069,0.3071,0,0,0,0,0,0.2584,0.2603,0.2616,0.2629,0.2704,0.276,0.277,0.2802,0.2798,0.2814,0.2846,0.2856,0.2962,0.294,0.2952,0.2974,0.3079,0.3082,0.3086,0.3065,0.3069,0.3071,0,0,0,0,0,0,0.2542,0.261,0.2625,0.2663,0.2709,0.2766,0.278,0.2801,0.2839,0.2836,0.2873,0.2885,0.2942,0.2962,0.2937,0.3029,0.3023,0.3029,0.3004,0.3007,0.301,0.2966,0.2947,0,0,0,0,0,0.2539,0.2568,0.2634,0.266,0.2682,0.2729,0.2753,0.2777,0.2819,0.2835,0.2872,0.2915,0.2967,0.2987,0.3038,0.3079,0.3085,0.3104,0.3107,0.3108,0.3083,0.3123,0.3126,0.3099,0.3099,0.3099,0,0,0.2525,0.2568,0.2582,0.2652,0.2684,0.2713,0.2742,0.2779,0.2798,0.284,0.2874,0.293,0.2984,0.3039,0.3065,0.3053,0.3122,0.3113,0.3114,0.3087,0.3127,0.3129,0.3131,0.3101,0.3101,0.31,0,0,0.2509,0.2555,0.2569,0.261,0.2667,0.2701,0.2711,0.2774,0.2797,0.2842,0.2886,0.2941,0.3011,0.3055,0.3084,0.3129,0.3142,0.316,0.3126,0.3166,0.3167,0.3169,0.3179,0.3182,0.3151,0.3151,0.3151,0,0.2484,0.2522,0.2581,0.2606,0.263,0.2691,0.2705,0.2745,0.2814,0.2833,0.2847,0.2962,0.3012,0.3074,0.3095,0.3131,0.3147,0.3106,0.3165,0.3167,0.3168,0.3179,0.3182,0.315,0.315,0.315,0.315,0,0.2483,0.251,0.2522,0.2571,0.2607,0.2634,0.2695,0.273,0.2762,0.2801,0.2872,0.2948,0.3007,0.3051,0.3083,0.3136,0.3142,0.317,0.3147,0.3169,0.318,0.3183,0.315,0.315,0.315,0.315,0,0,0.2416,0.2504,0.2501,0.2518,0.2591,0.2617,0.2652,0.2704,0.2717,0.2792,0.2814,0.2921,0.2961,0.2997,0.3064,0.3099,0.3137,0.3133,0.3135,0.3122,0.3208,0.3202,0.3205,0.3181,0.3181,0.3182,0.3209,0,0.2387,0.2423,0.2474,0.2491,0.2512,0.2577,0.2603,0.2656,0.2705,0.2747,0.2828,0.2884,0.2943,0.2979,0.3026,0.3118,0.3145,0.3125,0.3205,0.3206,0.3182,0.3209,0.3237,0.3263,0.3212,0.3213,0.3213,0,0.2353,0.2387,0.2404,0.2457,0.2469,0.2483,0.2529,0.2565,0.264,0.2679,0.2743,0.2812,0.289,0.2934,0.3057,0.3044,0.3113,0.3173,0.3176,0.3171,0.3206,0.3236,0.3271,0.3275,0.3218,0.3218,0.3217,0,0.2272,0.2326,0.2337,0.2358,0.2431,0.2436,0.2467,0.2534,0.2559,0.2633,0.2654,0.2758,0.2808,0.291,0.304,0.3052,0.3162,0.3195,0.3246,0.3246,0.3281,0.3283,0.3307,0.3262,0.3262,0.3262,0.3262,0,0.2223,0.2218,0.2297,0.2303,0.2302,0.2371,0.2373,0.2421,0.2481,0.2506,0.2609,0.2645,0.2807,0.2899,0.3012,0.3132,0.314,0.3228,0.3255,0.3277,0.3278,0.3291,0.3233,0.3263,0.3263,0.3263,0.3263,0,0.2123,0.218,0.2188,0.2252,0.2265,0.2259,0.2308,0.2316,0.2381,0.2414,0.2434,0.2559,0.2683,0.2835,0.3001,0.3088,0.3162,0.3248,0.3246,0.3271,0.3309,0.3247,0.3064,0.303,0.3295,0.3295,0.3295,0,0.2078,0.2078,0.2131,0.213,0.2151,0.2163,0.2174,0.2251,0.2272,0.2363,0.2373,0.2494,0.2588,0.2811,0.3018,0.3199,0.3143,0.3294,0.332,0.3299,0.3251,0.3068,0.304,0.3365,0.3366,0.3366,0.3367,0,0.1983,0.2001,0.2016,0.2028,0.2033,0.2046,0.2073,0.208,0.2176,0.2215,0.2285,0.2361,0.2603,0.2813,0.305,0.3181,0.3186,0.3306,0.3307,0.3307,0.3086,0.3073,0.3332,0.3371,0.3371,0.337,0.337,0.337,0.1895,0.1885,0.1916,0.1922,0.1927,0.1936,0.1934,0.1981,0.2018,0.2089,0.2188,0.2302,0.2611,0.2965,0.3127,0.3378,0.3203,0.3393,0.332,0.3135,0.3087,0.3325,0.3381,0.338,0.338,0.338,0.338,0,0.1803,0.1816,0.1813,0.1827,0.1813,0.1849,0.1873,0.188,0.1914,0.2005,0.2082,0.2355,0.2659,0.2976,0.3342,0.3401,0.3349,0.3365,0.3164,0.3144,0.3429,0.3426,0.3467,0.3467,0.3467,0.3467,0.3467,0.3467,0.1753,0.1737,0.1758,0.1728,0.1732,0.1715,0.1724,0.1745,0.1805,0.1907,0.203,0.2144,0.2494,0.2975,0.3305,0.3351,0.3217,0.3098,0.3032,0.3325,0.3324,0.3322,0.3313,0.333,0.3329,0.2754,0.275,0.2746]},{"header":{"parameterUnit":"m.s-1","parameterCategory":2,"la1":30.2991,"la2":30.254,"lo1":-89.0895,"lo2":-89.0444,"dy":0.0017,"dx":0.0017,"nx":28,"ny":28,"refTime":"2025-12-11T09:00:00:Z","depth":"0","parameterNumber":3,"parameterNumberName":"V-component_of_CURRENTS"},"data":[0,0,0,0,0,0,0,0,0,0,0,0,0,0,0,0,0,0,0,0,0,0,0,0,0,0,0,0,0,0,0,0,0,0,0,0,0,0,0,0,0,0,0,0,0,0,0,0,0,0,0,0,0,0,0,0,0,0,-0.1389,-0.1389,0,-0.14,-0.14,-0.14,-0.1444,-0.1446,-0.1447,-0.1448,-0.1467,-0.1467,-0.1466,0,0,0,0,0,0,0,0,0,0,0,0,0,-0.1384,-0.1384,-0.1389,-0.1389,-0.1389,-0.14,-0.14,-0.14,-0.1444,-0.1446,-0.1447,-0.1448,-0.1467,-0.1467,-0.1466,0,0,0,0,0,0,0,0,0,0,0,0,0,-0.1389,-0.1384,-0.1389,-0.1413,-0.1415,-0.1399,-0.14,-0.14,-0.1444,-0.1446,-0.1447,-0.1449,-0.1467,-0.1467,-0.1466,-0.1429,0,0,-0.1464,-0.1463,0,0,0,0,0,0,0,0,-0.1389,-0.1389,-0.1409,-0.1411,-0.1414,-0.1423,-0.1405,-0.141,-0.1444,-0.1433,-0.1448,-0.145,-0.1452,-0.1453,-0.145,-0.143,-0.1431,-0.1464,-0.1463,-0.1463,-0.1463,0,0,0,0,0,0,0,-0.1388,-0.1389,-0.1393,-0.1409,-0.1412,-0.1415,-0.1418,-0.1406,-0.1433,-0.1434,-0.1437,-0.1438,-0.1454,-0.1451,-0.1451,-0.1431,-0.1464,-0.1463,-0.1463,-0.1462,-0.1342,-0.1339,0,0,0,0,0,0,-0.1387,-0.1388,-0.1392,-0.1393,-0.1405,-0.1414,-0.1417,-0.1418,-0.1433,-0.1437,-0.1437,-0.144,-0.1451,-0.1452,-0.1452,-0.1379,-0.1463,-0.1462,-0.1462,-0.1344,-0.1341,-0.1338,0,0,0,0,0,0,-0.1387,-0.1387,-0.1392,-0.1391,-0.1392,-0.1413,-0.1413,-0.1417,-0.1414,-0.1436,-0.144,-0.143,-0.1453,-0.1453,-0.1421,-0.1382,-0.1462,-0.1461,-0.1348,-0.1343,-0.134,-0.1252,0,0,0,0,0,0,-0.1387,-0.1387,-0.138,-0.1391,-0.1392,-0.1368,-0.1412,-0.1416,-0.1413,-0.1418,-0.1431,-0.1435,-0.1454,-0.1421,-0.142,-0.1382,-0.1461,-0.1351,-0.1346,-0.1341,-0.1259,-0.1246,-0.1235,0,0,0,0,0,-0.1386,-0.1368,-0.138,-0.138,-0.1384,-0.1367,-0.1366,-0.1387,-0.1411,-0.1393,-0.1398,-0.1434,-0.1388,-0.1418,-0.1417,-0.1378,-0.1354,-0.1347,-0.1341,-0.1264,-0.1248,-0.1235,0,0,0,0,0,0,-0.1357,-0.1371,-0.1384,-0.137,-0.1364,-0.1374,-0.136,-0.1376,-0.1366,-0.1372,-0.1399,-0.1401,-0.1359,-0.1371,-0.1404,-0.1325,-0.1376,-0.1369,-0.1317,-0.1302,-0.1291,-0.1295,-0.146,0,0,0,0,0,-0.1348,-0.134,-0.1349,-0.1334,-0.133,-0.1343,-0.1338,-0.1349,-0.1347,-0.1346,-0.1352,-0.1349,-0.1329,-0.132,-0.1308,-0.1263,-0.1278,-0.1234,-0.1222,-0.1212,-0.1212,-0.1191,-0.1177,-0.1318,-0.1318,-0.1318,0,0,-0.1332,-0.1337,-0.1333,-0.1327,-0.1326,-0.1301,-0.1343,-0.1326,-0.13,-0.1346,-0.1306,-0.1308,-0.1307,-0.1258,-0.1239,-0.1265,-0.1175,-0.1204,-0.1196,-0.1201,-0.1183,-0.117,-0.1158,-0.1313,-0.1314,-0.1315,0,0,-0.1293,-0.1299,-0.1281,-0.1269,-0.1263,-0.1263,-0.1254,-0.1253,-0.1248,-0.1207,-0.1231,-0.1202,-0.1179,-0.1165,-0.1158,-0.1066,-0.1114,-0.1063,-0.1007,-0.0985,-0.0974,-0.0965,-0.0956,-0.0947,-0.1056,-0.1056,-0.1056,0,-0.1274,-0.1256,-0.1268,-0.1242,-0.1227,-0.1241,-0.1209,-0.1192,-0.1178,-0.1164,-0.1181,-0.1129,-0.1131,-0.1071,-0.1042,-0.104,-0.1047,-0.1067,-0.0972,-0.0963,-0.0955,-0.0948,-0.0939,-0.1051,-0.1052,-0.1052,-0.1053,0,-0.1225,-0.1204,-0.1185,-0.1162,-0.1141,-0.1112,-0.1098,-0.1071,-0.1069,-0.1061,-0.1006,-0.0997,-0.0976,-0.0958,-0.0975,-0.091,-0.0939,-0.0963,-0.1016,-0.0936,-0.0933,-0.0925,-0.1044,-0.1046,-0.1047,-0.1049,0,0,-0.1201,-0.1162,-0.1156,-0.1135,-0.11,-0.108,-0.1024,-0.0985,-0.0956,-0.0925,-0.0883,-0.0835,-0.0851,-0.0842,-0.0851,-0.0826,-0.0769,-0.0869,-0.0871,-0.0874,-0.0733,-0.0751,-0.0745,-0.0785,-0.0784,-0.0782,-0.0751,0,-0.1161,-0.1106,-0.1094,-0.1029,-0.0999,-0.0986,-0.0935,-0.09,-0.0875,-0.0832,-0.081,-0.0774,-0.0799,-0.0791,-0.0764,-0.0776,-0.0746,-0.0776,-0.0799,-0.08,-0.0837,-0.0735,-0.0669,-0.0636,-0.0744,-0.0743,-0.0742,0,-0.112,-0.109,-0.103,-0.0975,-0.0961,-0.0923,-0.0864,-0.0821,-0.0765,-0.0748,-0.0709,-0.0708,-0.0659,-0.0697,-0.0662,-0.0686,-0.07,-0.0706,-0.0705,-0.0751,-0.0803,-0.0734,-0.0619,-0.0605,-0.073,-0.0731,-0.0732,0,-0.1106,-0.1044,-0.0999,-0.0978,-0.0916,-0.0887,-0.0854,-0.0798,-0.0759,-0.0701,-0.0674,-0.0629,-0.0608,-0.0605,-0.0622,-0.0644,-0.0594,-0.0629,-0.065,-0.0653,-0.0615,-0.0618,-0.0502,-0.0594,-0.0594,-0.0594,-0.0595,0,-0.107,-0.1029,-0.0992,-0.0964,-0.0908,-0.0875,-0.0811,-0.0775,-0.0716,-0.0656,-0.0639,-0.0587,-0.0587,-0.0565,-0.0589,-0.059,-0.0568,-0.0619,-0.0633,-0.0581,-0.0581,-0.0587,-0.0623,-0.0593,-0.0594,-0.0594,-0.0594,0,-0.1048,-0.1025,-0.0971,-0.0917,-0.0899,-0.0861,-0.0792,-0.0744,-0.07,-0.0623,-0.0604,-0.0548,-0.0514,-0.0519,-0.051,-0.0547,-0.0571,-0.056,-0.0506,-0.0515,-0.0538,-0.0573,-0.0631,-0.0674,-0.0571,-0.0571,-0.0571,0,-0.1027,-0.1,-0.0946,-0.0916,-0.0888,-0.0834,-0.0791,-0.074,-0.0687,-0.0593,-0.0549,-0.0497,-0.0435,-0.0428,-0.0466,-0.0489,-0.0551,-0.048,-0.0504,-0.0504,-0.0553,-0.0674,-0.0716,-0.0413,-0.0411,-0.041,-0.0409,0,-0.0984,-0.0973,-0.0934,-0.0879,-0.0836,-0.0778,-0.0716,-0.0676,-0.0605,-0.0534,-0.0433,-0.0377,-0.036,-0.0319,-0.0372,-0.0411,-0.0511,-0.0463,-0.0453,-0.0404,-0.0536,-0.0595,-0.0488,-0.04,-0.0401,-0.0402,-0.0402,-0.0403,-0.0955,-0.0923,-0.088,-0.0824,-0.0778,-0.0709,-0.0639,-0.0572,-0.0477,-0.0317,-0.0319,-0.0142,-0.0123,-0.0166,-0.0299,-0.0369,-0.0473,-0.0359,-0.0397,-0.0518,-0.0567,-0.0455,-0.04,-0.0401,-0.0402,-0.0403,-0.0403,0,-0.0902,-0.0868,-0.0819,-0.0745,-0.0679,-0.0666,-0.0569,-0.0473,-0.0339,-0.0172,-0.0052,0.0202,0.0163,0.0079,-0.0024,-0.0195,-0.0382,-0.0285,-0.0383,-0.0427,-0.0272,-0.0266,-0.019,-0.019,-0.019,-0.019,-0.019,-0.019,-0.0869,-0.081,-0.0784,-0.0665,-0.061,-0.0485,-0.0416,-0.0276,-0.0123,0.0203,0.0462,0.0617,0.0811,0.0396,0.0144,-0.0023,-0.0238,-0.0348,-0.0456,-0.0252,-0.026,-0.0268,-0.0266,-0.0191,-0.0191,-0.0598,-0.0601,-0.0603]}],[{"header":{"parameterUnit":"m.s-1","parameterCategory":2,"la1":30.2991,"la2":30.254,"lo1":-89.0895,"lo2":-89.0444,"dy":0.0017,"dx":0.0017,"nx":28,"ny":28,"refTime":"2025-12-11T09:00:00:Z","depth":"2","parameterNumber":2,"parameterNumberName":"U-component_of_CURRENTS"},"data":[0,0,0,0,0,0,0,0,0,0,0,0,0,0,0,0,0,0,0,0,0,0,0,0,0,0,0,0,0,0,0,0,0,0,0,0,0,0,0,0,0,0,0,0,0,0,0,0,0,0,0,0,0,0,0,0,0,0,-0.034,-0.034,0,-0.0357,-0.0358,-0.0358,-0.0362,-0.0362,-0.0362,-0.0362,-0.0369,-0.037,-0.037,0,0,0,0,0,0,0,0,0,0,0,0,0,-0.0331,-0.0331,-0.034,-0.034,-0.034,-0.0357,-0.0358,-0.0358,-0.0362,-0.0362,-0.0362,-0.0362,-0.0369,-0.037,-0.037,0,0,0,0,0,0,0,0,0,0,0,0,0,-0.0341,-0.0331,-0.034,-0.0343,-0.0344,-0.0357,-0.0358,-0.0358,-0.0363,-0.0362,-0.0362,-0.0362,-0.0369,-0.037,-0.037,-0.038,0,0,-0.0372,-0.0372,0,0,0,0,0,0,0,0,-0.034,-0.0341,-0.0343,-0.0343,-0.0344,-0.0356,-0.0357,-0.0364,-0.0363,-0.0357,-0.0362,-0.0362,-0.0364,-0.0365,-0.037,-0.038,-0.0381,-0.0372,-0.0372,-0.0373,-0.0373,0,0,0,0,0,0,0,-0.034,-0.0341,-0.0348,-0.0343,-0.0343,-0.0351,-0.0352,-0.0359,-0.0362,-0.0357,-0.0357,-0.0358,-0.0364,-0.037,-0.037,-0.0381,-0.0372,-0.0373,-0.0373,-0.0373,-0.0332,-0.033,0,0,0,0,0,0,-0.0335,-0.034,-0.0347,-0.0348,-0.034,-0.0352,-0.0353,-0.0353,-0.0362,-0.0363,-0.0358,-0.0358,-0.0369,-0.037,-0.0371,-0.0311,-0.0373,-0.0373,-0.0374,-0.0333,-0.0331,-0.033,0,0,0,0,0,0,-0.0334,-0.0335,-0.0346,-0.0344,-0.0345,-0.0352,-0.0353,-0.0354,-0.0344,-0.0363,-0.0364,-0.0345,-0.0369,-0.037,-0.0357,-0.0314,-0.0374,-0.0374,-0.0335,-0.0333,-0.0331,-0.0237,0,0,0,0,0,0,-0.0334,-0.0335,-0.0329,-0.0343,-0.0345,-0.0338,-0.0353,-0.0355,-0.0346,-0.0345,-0.0352,-0.0354,-0.0369,-0.0356,-0.0358,-0.0316,-0.0375,-0.0337,-0.0334,-0.0331,-0.0242,-0.0232,-0.0223,0,0,0,0,0,-0.0334,-0.0327,-0.0329,-0.033,-0.0339,-0.0338,-0.0339,-0.0344,-0.0345,-0.0335,-0.0338,-0.0353,-0.034,-0.0356,-0.0358,-0.0315,-0.0338,-0.0335,-0.0331,-0.0246,-0.0234,-0.0223,0,0,0,0,0,0,-0.0324,-0.0327,-0.033,-0.0325,-0.0324,-0.0337,-0.0327,-0.0333,-0.0329,-0.0321,-0.0342,-0.0343,-0.0314,-0.0331,-0.0349,-0.0295,-0.0338,-0.0335,-0.0272,-0.0261,-0.0252,-0.0227,-0.0375,0,0,0,0,0,-0.0318,-0.031,-0.0317,-0.031,-0.0306,-0.0313,-0.0312,-0.0311,-0.0313,-0.031,-0.0312,-0.0312,-0.0305,-0.0297,-0.0299,-0.0274,-0.0272,-0.0246,-0.0237,-0.0229,-0.0209,-0.0182,-0.0168,-0.0319,-0.0319,-0.0319,0,0,-0.0313,-0.0313,-0.0309,-0.0306,-0.0304,-0.0286,-0.0311,-0.0295,-0.0272,-0.0311,-0.0274,-0.0282,-0.0293,-0.0261,-0.0249,-0.0267,-0.0181,-0.0224,-0.0217,-0.0202,-0.0177,-0.0163,-0.0149,-0.0317,-0.0317,-0.0318,0,0,-0.0293,-0.0294,-0.0276,-0.0267,-0.0255,-0.0256,-0.0246,-0.0243,-0.0231,-0.0205,-0.0221,-0.0201,-0.0195,-0.0188,-0.0187,-0.0129,-0.0137,-0.0125,-0.0051,-0.0024,-0.0011,-0.0,0.004,0.0054,-0.0115,-0.0115,-0.0115,0,-0.0285,-0.0266,-0.027,-0.0246,-0.0231,-0.0237,-0.0208,-0.0197,-0.0187,-0.0167,-0.0177,-0.0144,-0.0157,-0.0113,-0.0085,-0.0105,-0.0086,-0.0092,-0.0011,0.0,0.001,0.0048,0.0063,-0.011,-0.0111,-0.0111,-0.0112,0,-0.0251,-0.0229,-0.0214,-0.0183,-0.0166,-0.0143,-0.0126,-0.0099,-0.0085,-0.0074,-0.0024,-0.0035,-0.0009,-0.0009,-0.0026,0.0045,0.0038,-0.0006,-0.0036,0.0032,0.0067,0.0081,-0.0103,-0.0105,-0.0106,-0.0108,0,0,-0.0251,-0.0201,-0.0193,-0.0167,-0.0129,-0.0115,-0.006,-0.002,0.0021,0.0045,0.0101,0.0122,0.0127,0.013,0.0115,0.0141,0.0229,0.0114,0.0113,0.016,0.0313,0.0384,0.0405,0.0205,0.0207,0.0209,0.0316,0,-0.0221,-0.0169,-0.0146,-0.0087,-0.006,-0.0032,0.0015,0.0057,0.0091,0.0144,0.016,0.0203,0.0177,0.02,0.0229,0.0222,0.0267,0.0206,0.0235,0.0236,0.0296,0.0423,0.023,0.0316,0.0329,0.0331,0.0332,0,-0.0196,-0.0163,-0.0104,-0.004,-0.0023,0.0017,0.0094,0.0138,0.0211,0.0244,0.0303,0.0312,0.0376,0.0328,0.0393,0.036,0.0363,0.0351,0.0353,0.0399,0.0333,0.0246,0.0339,0.0354,0.0352,0.0351,0.0349,0,-0.0205,-0.0135,-0.0087,-0.0065,0.0007,0.0051,0.0096,0.0172,0.0222,0.0318,0.0368,0.0431,0.0477,0.0491,0.0505,0.0457,0.0567,0.0483,0.0552,0.0556,0.0388,0.0375,0.054,0.0539,0.0539,0.0539,0.0539,0,-0.0192,-0.0152,-0.0086,-0.006,0.0006,0.006,0.0142,0.02,0.0293,0.0368,0.0424,0.05,0.0523,0.0584,0.0565,0.0642,0.0627,0.0615,0.0608,0.0419,0.0408,0.0421,0.0406,0.0543,0.0542,0.0541,0.054,0,-0.0206,-0.0164,-0.0108,-0.0026,0.0003,0.0052,0.0161,0.022,0.0315,0.0419,0.046,0.0579,0.0697,0.0723,0.0766,0.0743,0.0774,0.0792,0.0596,0.0567,0.0723,0.0711,0.0887,0.0891,0.0894,0.0897,0.0899,0,-0.0209,-0.018,-0.0096,-0.006,-0.0018,0.0061,0.0118,0.0221,0.0291,0.0466,0.0518,0.0682,0.0796,0.0928,0.0924,0.0964,0.0921,0.0792,0.0673,0.0794,0.0768,0.0751,0.0735,0.0473,0.0471,0.047,0.0469,0,-0.0208,-0.0176,-0.0132,-0.0063,-0.0002,0.0062,0.0156,0.0209,0.0344,0.0449,0.0617,0.0729,0.09,0.0906,0.0986,0.094,0.0776,0.0779,0.0949,0.0443,0.042,0.0389,0.0383,0.0459,0.046,0.0461,0.0461,0.0462,-0.0205,-0.0179,-0.012,-0.0054,0.0002,0.0066,0.0119,0.0216,0.033,0.0463,0.0593,0.0714,0.0715,0.0809,0.0824,0.0826,0.0868,0.0698,0.0693,0.0691,0.0654,0.0641,0.0714,0.0716,0.0718,0.072,0.0721,0,-0.0191,-0.0159,-0.0107,-0.0035,0.0009,0.005,0.0147,0.0188,0.0304,0.0406,0.0529,0.0494,0.0516,0.0598,0.0607,0.063,0.0528,0.0564,0.0368,0.0376,0.0384,0.0324,0.03,0.0301,0.0301,0.0301,0,0,-0.0178,-0.013,-0.0102,-0.0036,0.0006,0.0068,0.0117,0.017,0.0239,0.0325,0.0379,0.0373,0.0487,0.0353,0.0334,0.0353,0.0355,0.0313,0.0622,0.0391,0.04,0.0411,0.0325,0,0,0,0,0]},{"header":{"parameterUnit":"m.s-1","parameterCategory":2,"la1":30.2991,"la2":30.254,"lo1":-89.0895,"lo2":-89.0444,"dy":0.0017,"dx":0.0017,"nx":28,"ny":28,"refTime":"2025-12-11T09:00:00:Z","depth":"2","parameterNumber":3,"parameterNumberName":"V-component_of_CURRENTS"},"data":[0,0,0,0,0,0,0,0,0,0,0,0,0,0,0,0,0,0,0,0,0,0,0,0,0,0,0,0,0,0,0,0,0,0,0,0,0,0,0,0,0,0,0,0,0,0,0,0,0,0,0,0,0,0,0,0,0,0,0.0247,0.0246,0,0.0178,0.0177,0.0177,0.0122,0.0121,0.0121,0.012,-0.0001,-0.0003,-0.0006,0,0,0,0,0,0,0,0,0,0,0,0,0,0.0345,0.0343,0.0247,0.0246,0.0245,0.0178,0.0177,0.0176,0.0122,0.0121,0.0121,0.012,0.0,-0.0003,-0.0006,0,0,0,0,0,0,0,0,0,0,0,0,0,0.0293,0.0343,0.0247,0.0209,0.0205,0.0178,0.0177,0.0176,0.0122,0.0121,0.012,0.0119,0.0001,-0.0003,-0.0006,-0.0011,0,0,-0.0018,-0.002,0,0,0,0,0,0,0,0,0.0296,0.0289,0.0215,0.0211,0.0207,0.0156,0.0167,0.0111,0.0123,0.0155,0.012,0.0119,0.0047,0.0039,0.0031,-0.0017,-0.0022,-0.0019,-0.0021,-0.0023,-0.0024,0,0,0,0,0,0,0,0.0299,0.0292,0.0221,0.0215,0.0209,0.02,0.0191,0.0157,0.0107,0.0152,0.0148,0.0138,0.0044,0.0035,0.0028,-0.0024,-0.0019,-0.0022,-0.0024,-0.0026,-0.0157,-0.0158,0,0,0,0,0,0,0.0306,0.0295,0.0223,0.0219,0.0248,0.0198,0.0189,0.0175,0.0109,0.0098,0.0139,0.0136,0.0042,0.0032,0.0023,-0.0043,-0.0023,-0.0026,-0.0029,-0.0156,-0.0157,-0.0159,0,0,0,0,0,0,0.0308,0.03,0.0226,0.0255,0.0245,0.0198,0.0182,0.0174,0.0141,0.0099,0.0087,0.0112,0.0041,0.0029,-0.003,-0.0046,-0.0028,-0.0032,-0.0155,-0.0156,-0.0158,-0.014,0,0,0,0,0,0,0.0311,0.0301,0.0289,0.0255,0.0243,0.0201,0.0182,0.0173,0.0137,0.0132,0.0072,0.0062,0.0039,-0.0024,-0.0034,-0.0052,-0.0035,-0.0153,-0.0155,-0.0157,-0.0139,-0.0141,-0.0142,0,0,0,0,0,0.0315,0.0308,0.0289,0.028,0.023,0.0201,0.0194,0.0159,0.0137,0.0125,0.0077,0.0062,-0.0045,-0.0028,-0.0039,-0.0058,-0.0152,-0.0155,-0.0157,-0.0138,-0.0141,-0.0142,0,0,0,0,0,0,0.035,0.0301,0.028,0.0259,0.0226,0.0191,0.0176,0.0149,0.0103,0.0088,0.0048,0.0034,-0.0023,-0.0046,-0.0027,-0.0104,-0.0101,-0.0106,-0.0083,-0.0085,-0.0087,-0.0062,-0.0038,0,0,0,0,0,0.0352,0.0328,0.0285,0.0268,0.025,0.0208,0.0189,0.0162,0.012,0.0098,0.0054,0.0004,-0.0037,-0.0066,-0.0104,-0.0147,-0.0154,-0.0168,-0.017,-0.0171,-0.016,-0.019,-0.0192,-0.0167,-0.0167,-0.0167,0,0,0.0362,0.0331,0.0318,0.0273,0.0243,0.0221,0.0193,0.0159,0.0137,0.0092,0.004,-0.0004,-0.005,-0.0097,-0.0124,-0.0123,-0.0183,-0.0174,-0.0175,-0.0163,-0.0192,-0.0194,-0.0196,-0.0169,-0.0168,-0.0168,0,0,0.0375,0.0339,0.0324,0.0296,0.0247,0.0221,0.0207,0.0155,0.0126,0.0075,0.0035,-0.0017,-0.0085,-0.0116,-0.0141,-0.0176,-0.0189,-0.0198,-0.0188,-0.0216,-0.0218,-0.0219,-0.0226,-0.0228,-0.02,-0.02,-0.02,0,0.0387,0.0361,0.0318,0.0296,0.0276,0.022,0.0204,0.0171,0.0105,0.0085,0.0057,-0.0042,-0.0088,-0.0133,-0.0151,-0.0177,-0.0189,-0.0173,-0.0216,-0.0218,-0.0219,-0.0226,-0.0228,-0.0199,-0.0199,-0.0199,-0.0199,0,0.0389,0.0364,0.0354,0.0306,0.0281,0.0257,0.0207,0.0172,0.0126,0.0092,0.0028,-0.0036,-0.0089,-0.0122,-0.015,-0.0191,-0.0194,-0.0211,-0.0203,-0.022,-0.0226,-0.0229,-0.0198,-0.0198,-0.0199,-0.0199,0,0,0.0422,0.0366,0.036,0.0347,0.0282,0.0268,0.0229,0.0187,0.0172,0.0093,0.0069,-0.0021,-0.0059,-0.0089,-0.0138,-0.0173,-0.0205,-0.02,-0.0202,-0.0191,-0.0255,-0.0231,-0.0232,-0.0233,-0.0233,-0.0234,-0.0252,0,0.0434,0.0411,0.0374,0.0355,0.034,0.0287,0.0267,0.0221,0.0174,0.0136,0.006,0.0016,-0.0045,-0.0072,-0.0122,-0.0186,-0.0213,-0.0197,-0.0253,-0.0254,-0.0219,-0.0235,-0.0214,-0.0227,-0.0254,-0.0255,-0.0255,0,0.0444,0.0429,0.0416,0.0388,0.0377,0.0363,0.0328,0.0302,0.024,0.0204,0.014,0.008,0.0004,-0.0039,-0.0148,-0.0138,-0.0191,-0.0238,-0.024,-0.0222,-0.0236,-0.0218,-0.0231,-0.026,-0.026,-0.026,-0.0259,0,0.0493,0.0458,0.0454,0.044,0.0399,0.0394,0.0375,0.0325,0.0316,0.0252,0.0237,0.0134,0.0091,-0.0005,-0.0124,-0.0136,-0.0229,-0.0253,-0.0274,-0.0272,-0.0266,-0.0262,-0.0309,-0.0309,-0.0309,-0.0309,-0.0309,0,0.0519,0.0517,0.0482,0.048,0.0494,0.0447,0.0454,0.0425,0.0389,0.0385,0.0281,0.026,0.0095,0.0011,-0.0096,-0.0193,-0.0208,-0.0265,-0.0278,-0.0259,-0.0255,-0.0295,-0.0294,-0.031,-0.031,-0.0309,-0.0309,0,0.0571,0.054,0.0544,0.0518,0.0517,0.053,0.0519,0.0527,0.0484,0.0477,0.0461,0.0355,0.0246,0.0092,-0.0055,-0.0138,-0.0242,-0.0267,-0.0223,-0.023,-0.0269,-0.0266,-0.0286,-0.0285,-0.0284,-0.0284,-0.0284,0,0.0596,0.0601,0.0591,0.0607,0.0599,0.0609,0.0621,0.0584,0.0592,0.0539,0.0547,0.0443,0.0387,0.0186,0.0013,-0.0146,-0.0208,-0.0228,-0.0247,-0.0257,-0.0268,-0.0266,-0.0264,-0.0233,-0.0232,-0.0232,-0.0231,0,0.0655,0.0648,0.0654,0.0682,0.07,0.0722,0.0733,0.0752,0.0708,0.071,0.07,0.066,0.0469,0.0291,0.0064,-0.0036,-0.0207,-0.0217,-0.0252,-0.0236,-0.0208,-0.0218,-0.0218,-0.0226,-0.0226,-0.0227,-0.0227,-0.0227,0.0706,0.0725,0.0729,0.0759,0.0787,0.0822,0.0849,0.0867,0.0894,0.0858,0.0821,0.0708,0.0478,0.0168,0.0034,-0.0116,-0.0115,-0.021,-0.0212,-0.0215,-0.0199,-0.0171,-0.0178,-0.0179,-0.0179,-0.0179,-0.0179,0,0.0757,0.0766,0.0806,0.0835,0.0882,0.0874,0.0915,0.0936,0.0986,0.0896,0.0881,0.057,0.0409,0.0161,-0.0027,-0.0125,-0.0132,-0.0187,-0.0198,-0.0202,-0.0205,-0.0191,-0.0167,-0.0167,-0.0168,-0.0168,0,0,0.0781,0.0815,0.0828,0.0904,0.0933,0.0987,0.1012,0.105,0.1002,0.0862,0.0709,0.0593,0.0331,0.0143,0.0015,-0.007,-0.0104,-0.0077,-0.0072,-0.0069,-0.0071,-0.02,-0.0178,0,0,0,0,0]}],[{"header":{"parameterUnit":"m.s-1","parameterCategory":2,"la1":30.2991,"la2":30.254,"lo1":-89.0895,"lo2":-89.0444,"dy":0.0017,"dx":0.0017,"nx":28,"ny":28,"refTime":"2025-12-11T09:00:00:Z","depth":"4","parameterNumber":2,"parameterNumberName":"U-component_of_CURRENTS"},"data":[0,0,0,0,0,0,0,0,0,0,0,0,0,0,0,0,0,0,0,0,0,0,0,0,0,0,0,0,0,0,0,0,0,0,0,0,0,0,0,0,0,0,0,0,0,0,0,0,0,0,0,0,0,0,0,0,0,0,-0.0206,-0.0206,0,-0.0212,-0.0212,-0.0213,-0.0204,-0.0204,-0.0204,-0.0204,-0.0218,-0.0219,-0.022,0,0,0,0,0,0,0,0,0,0,0,0,0,-0.0196,-0.0196,-0.0206,-0.0206,-0.0206,-0.0212,-0.0212,-0.0213,-0.0204,-0.0204,-0.0204,-0.0204,-0.0218,-0.0219,-0.022,0,0,0,0,0,0,0,0,0,0,0,0,0,-0.0201,-0.0197,-0.0206,-0.0203,-0.0203,-0.0212,-0.0212,-0.0213,-0.0204,-0.0204,-0.0204,-0.0203,-0.0218,-0.0219,-0.022,-0.0233,0,0,-0.0223,-0.0223,0,0,0,0,0,0,0,0,-0.0201,-0.0201,-0.0204,-0.0204,-0.0203,-0.0208,-0.0215,-0.022,-0.0205,-0.0203,-0.0204,-0.0203,-0.0216,-0.0217,-0.0218,-0.0234,-0.0234,-0.0223,-0.0223,-0.0224,-0.0224,0,0,0,0,0,0,0,-0.02,-0.0201,-0.0208,-0.0204,-0.0204,-0.0205,-0.0205,-0.0215,-0.0212,-0.0204,-0.0203,-0.0205,-0.0216,-0.0218,-0.0219,-0.0235,-0.0223,-0.0224,-0.0224,-0.0225,-0.0267,-0.0267,0,0,0,0,0,0,-0.0201,-0.0201,-0.0208,-0.0208,-0.0202,-0.0206,-0.0206,-0.0206,-0.0211,-0.0212,-0.0205,-0.0204,-0.0216,-0.0218,-0.0219,-0.0238,-0.0224,-0.0225,-0.0225,-0.0266,-0.0267,-0.0267,0,0,0,0,0,0,-0.02,-0.0201,-0.0208,-0.0205,-0.0206,-0.0206,-0.0207,-0.0207,-0.0207,-0.0213,-0.0213,-0.0206,-0.0216,-0.0218,-0.0227,-0.0239,-0.0225,-0.0226,-0.0266,-0.0266,-0.0267,-0.0274,0,0,0,0,0,0,-0.02,-0.0201,-0.0203,-0.0205,-0.0206,-0.0213,-0.0207,-0.0207,-0.0209,-0.0208,-0.0214,-0.0215,-0.0216,-0.0226,-0.0228,-0.024,-0.0227,-0.0265,-0.0266,-0.0267,-0.0273,-0.0275,-0.0277,0,0,0,0,0,-0.02,-0.0205,-0.0203,-0.0204,-0.0208,-0.0214,-0.0214,-0.0213,-0.021,-0.0212,-0.0214,-0.0214,-0.0234,-0.0227,-0.023,-0.0242,-0.0264,-0.0266,-0.0267,-0.0273,-0.0275,-0.0277,0,0,0,0,0,0,-0.0205,-0.0204,-0.0203,-0.0208,-0.021,-0.0212,-0.0216,-0.0215,-0.0218,-0.0218,-0.0219,-0.0221,-0.0233,-0.0238,-0.023,-0.0258,-0.0251,-0.0252,-0.0254,-0.0256,-0.0258,-0.0266,-0.0227,0,0,0,0,0,-0.0207,-0.0208,-0.0209,-0.0214,-0.0215,-0.0216,-0.0218,-0.0217,-0.022,-0.0221,-0.0225,-0.0232,-0.0242,-0.0248,-0.0256,-0.0271,-0.0277,-0.0282,-0.0284,-0.0285,-0.0294,-0.0317,-0.0321,-0.0272,-0.0272,-0.0272,0,0,-0.0211,-0.0211,-0.0212,-0.0215,-0.0217,-0.022,-0.0216,-0.0221,-0.0224,-0.0224,-0.023,-0.0237,-0.0247,-0.0261,-0.0268,-0.0266,-0.0299,-0.0287,-0.0288,-0.0296,-0.0318,-0.0323,-0.0328,-0.0272,-0.0272,-0.0272,0,0,-0.0218,-0.022,-0.022,-0.0222,-0.0225,-0.0226,-0.0227,-0.023,-0.0231,-0.024,-0.0241,-0.0255,-0.0267,-0.0278,-0.0284,-0.0303,-0.0305,-0.0307,-0.0325,-0.0346,-0.0351,-0.0355,-0.0351,-0.0354,-0.031,-0.031,-0.031,0,-0.0223,-0.0221,-0.0223,-0.0224,-0.0225,-0.0228,-0.023,-0.0235,-0.024,-0.0244,-0.0243,-0.0269,-0.0276,-0.0299,-0.0308,-0.0307,-0.0313,-0.0314,-0.0349,-0.0353,-0.0357,-0.0352,-0.0356,-0.031,-0.031,-0.031,-0.031,0,-0.0226,-0.0226,-0.0229,-0.0228,-0.0233,-0.0236,-0.0241,-0.0246,-0.0249,-0.0254,-0.0274,-0.0288,-0.0308,-0.0312,-0.0317,-0.0351,-0.0342,-0.0345,-0.0342,-0.0362,-0.0356,-0.0359,-0.0311,-0.0311,-0.0311,-0.0311,0,0,-0.0232,-0.023,-0.023,-0.0227,-0.0233,-0.0235,-0.0246,-0.0253,-0.0258,-0.0274,-0.0289,-0.0315,-0.0329,-0.0339,-0.0351,-0.0373,-0.04,-0.0376,-0.0377,-0.037,-0.0433,-0.034,-0.0335,-0.0412,-0.0413,-0.0414,-0.0411,0,-0.0231,-0.0227,-0.0231,-0.0231,-0.0228,-0.0236,-0.0244,-0.0254,-0.0264,-0.028,-0.0306,-0.0327,-0.0337,-0.0354,-0.038,-0.0398,-0.0414,-0.0399,-0.0418,-0.0418,-0.0331,-0.0338,-0.0418,-0.0414,-0.0415,-0.0416,-0.0416,0,-0.023,-0.0226,-0.0222,-0.0222,-0.0223,-0.0225,-0.0236,-0.0246,-0.0271,-0.0285,-0.0318,-0.0338,-0.0382,-0.0386,-0.0433,-0.0425,-0.0434,-0.0443,-0.0443,-0.0359,-0.0332,-0.0395,-0.0423,-0.0423,-0.0422,-0.0422,-0.0421,0,-0.0221,-0.022,-0.0213,-0.0213,-0.0217,-0.0218,-0.0224,-0.0243,-0.0253,-0.0296,-0.0312,-0.036,-0.0387,-0.0421,-0.0441,-0.0447,-0.0476,-0.0482,-0.0401,-0.0394,-0.0477,-0.0473,-0.0512,-0.0512,-0.0512,-0.0512,-0.0512,0,-0.0215,-0.0211,-0.0205,-0.02,-0.0193,-0.0206,-0.0208,-0.0225,-0.0255,-0.026,-0.0318,-0.0327,-0.0402,-0.0423,-0.0444,-0.0423,-0.0478,-0.0403,-0.0391,-0.0477,-0.0473,-0.0478,-0.0474,-0.0512,-0.0512,-0.0512,-0.0512,0,-0.0207,-0.0203,-0.0193,-0.0189,-0.0186,-0.0182,-0.0191,-0.0193,-0.0232,-0.0246,-0.0265,-0.0315,-0.0329,-0.0374,-0.0415,-0.0407,-0.041,-0.0387,-0.0458,-0.045,-0.0313,-0.031,-0.0302,-0.0299,-0.0296,-0.0294,-0.0292,0,-0.0202,-0.0195,-0.0178,-0.0164,-0.0159,-0.0155,-0.0147,-0.0178,-0.0178,-0.0216,-0.0213,-0.0244,-0.0267,-0.0257,-0.0303,-0.0321,-0.0318,-0.0324,-0.0339,-0.0304,-0.0294,-0.0294,-0.0295,-0.0288,-0.0287,-0.0286,-0.0285,0,-0.0194,-0.0186,-0.0175,-0.0142,-0.0124,-0.0105,-0.0096,-0.0093,-0.0121,-0.0164,-0.0157,-0.0169,-0.0168,-0.0195,-0.0208,-0.0223,-0.0329,-0.0295,-0.0302,-0.0316,-0.0286,-0.0279,-0.0282,-0.0276,-0.0277,-0.0278,-0.0279,0,-0.0188,-0.0174,-0.015,-0.0121,-0.0091,-0.0049,-0.0051,-0.0037,-0.0045,-0.009,-0.0073,-0.0106,-0.0145,-0.0139,-0.0147,-0.0154,-0.0155,-0.0169,-0.0182,-0.0193,-0.0158,-0.0105,-0.0027,0,0,0,0,0,-0.0178,-0.0157,-0.013,-0.0085,-0.0051,-0.003,-0.0011,-0.0017,-0.0038,-0.0019,-0.005,-0.0043,-0.005,-0.0064,-0.005,-0.0086,-0.0153,-0.0067,-0.0175,-0.0223,-0.0234,-0.0202,0,0,0,0,0,0,-0.017,-0.0146,-0.0127,-0.0057,-0.0019,0.0024,0.0044,0.0031,0.0042,0.0009,0.0005,-0.0029,-0.0038,-0.0063,-0.005,-0.0053,-0.0114,-0.0088,-0.0087,-0.0217,-0.0227,-0.0236,-0.0207,0,0,0,0,0]},{"header":{"parameterUnit":"m.s-1","parameterCategory":2,"la1":30.2991,"la2":30.254,"lo1":-89.0895,"lo2":-89.0444,"dy":0.0017,"dx":0.0017,"nx":28,"ny":28,"refTime":"2025-12-11T09:00:00:Z","depth":"4","parameterNumber":3,"parameterNumberName":"V-component_of_CURRENTS"},"data":[0,0,0,0,0,0,0,0,0,0,0,0,0,0,0,0,0,0,0,0,0,0,0,0,0,0,0,0,0,0,0,0,0,0,0,0,0,0,0,0,0,0,0,0,0,0,0,0,0,0,0,0,0,0,0,0,0,0,0.0238,0.0238,0,0.0209,0.0208,0.0208,0.0217,0.0218,0.0219,0.0219,0.0189,0.0188,0.0186,0,0,0,0,0,0,0,0,0,0,0,0,0,0.0276,0.0275,0.0238,0.0238,0.0238,0.0209,0.0208,0.0208,0.0217,0.0218,0.0219,0.022,0.019,0.0188,0.0186,0,0,0,0,0,0,0,0,0,0,0,0,0,0.0254,0.0275,0.0238,0.0239,0.0239,0.0209,0.0208,0.0208,0.0217,0.0218,0.0219,0.022,0.019,0.0188,0.0186,0.0152,0,0,0.018,0.0179,0,0,0,0,0,0,0,0,0.0255,0.0252,0.024,0.0239,0.0239,0.0218,0.0211,0.0189,0.0217,0.0225,0.0219,0.0221,0.0198,0.0196,0.0187,0.0151,0.015,0.0179,0.0178,0.0177,0.0177,0,0,0,0,0,0,0,0.0257,0.0254,0.0226,0.0239,0.0239,0.0232,0.023,0.0206,0.0206,0.0224,0.0225,0.0222,0.0198,0.0189,0.0187,0.0149,0.0179,0.0178,0.0176,0.0175,0.0087,0.0086,0,0,0,0,0,0,0.0261,0.0255,0.0227,0.0225,0.025,0.0231,0.0228,0.0223,0.0206,0.0205,0.0221,0.0223,0.0192,0.0189,0.0186,0.0145,0.0177,0.0175,0.0174,0.0088,0.0086,0.0085,0,0,0,0,0,0,0.0262,0.0259,0.0228,0.024,0.0236,0.0229,0.0223,0.0222,0.0217,0.0204,0.0203,0.0218,0.0193,0.0189,0.0159,0.0144,0.0174,0.0172,0.0089,0.0087,0.0086,0.0064,0,0,0,0,0,0,0.0263,0.0259,0.0256,0.024,0.0235,0.0206,0.0222,0.0221,0.0214,0.0215,0.02,0.0198,0.0194,0.0163,0.0157,0.0142,0.0171,0.009,0.0088,0.0086,0.0066,0.0062,0.0058,0,0,0,0,0,0.0265,0.025,0.0255,0.0252,0.0231,0.0205,0.0201,0.02,0.0213,0.0201,0.0192,0.0199,0.0147,0.0159,0.0154,0.0137,0.0091,0.0089,0.0087,0.0068,0.0063,0.0058,0,0,0,0,0,0,0.0258,0.025,0.0255,0.0238,0.0223,0.0207,0.0195,0.0198,0.0181,0.0184,0.018,0.0176,0.0146,0.0141,0.0156,0.0105,0.0122,0.0118,0.0109,0.0104,0.0101,0.0101,0.0169,0,0,0,0,0,0.0256,0.0248,0.0236,0.0221,0.0215,0.0207,0.0197,0.0195,0.018,0.0175,0.0164,0.015,0.0129,0.0118,0.0097,0.0066,0.007,0.0052,0.0049,0.0045,0.0041,0.0027,0.0022,0.0077,0.0077,0.0077,0,0,0.0249,0.0244,0.0239,0.022,0.0211,0.0189,0.0203,0.0184,0.0166,0.0172,0.0142,0.0133,0.0117,0.0083,0.007,0.0079,0.0033,0.0042,0.004,0.0037,0.0024,0.0019,0.0015,0.0076,0.0076,0.0076,0,0,0.0228,0.0226,0.0213,0.0198,0.0183,0.0174,0.017,0.0151,0.0145,0.0113,0.0115,0.0095,0.0062,0.0047,0.0036,-0.0005,0.0012,-0.0006,-0.0026,-0.0039,-0.0043,-0.0047,-0.0038,-0.0041,-0.0007,-0.0007,-0.0007,0,0.0221,0.0203,0.0202,0.0182,0.0167,0.0167,0.0143,0.0128,0.0103,0.0091,0.01,0.0051,0.0042,0.0002,-0.0007,-0.0014,-0.0007,-0.0004,-0.0043,-0.0047,-0.005,-0.004,-0.0043,-0.0008,-0.0008,-0.0008,-0.0008,0,0.019,0.0174,0.0161,0.0141,0.0122,0.0099,0.0082,0.0063,0.0059,0.0047,0.0011,-0.0004,-0.003,-0.0036,-0.0033,-0.0065,-0.0047,-0.0045,-0.0027,-0.0057,-0.0044,-0.0047,-0.001,-0.001,-0.0009,-0.0009,0,0,0.0175,0.0148,0.0143,0.0128,0.01,0.0079,0.0046,0.0014,-0.0006,-0.0026,-0.0056,-0.0086,-0.0081,-0.0093,-0.0093,-0.0101,-0.0113,-0.008,-0.008,-0.0064,-0.0122,-0.0123,-0.0125,-0.0113,-0.0114,-0.0114,-0.0099,0,0.0152,0.0116,0.0104,0.0061,0.0039,0.0024,-0.0008,-0.0035,-0.0053,-0.0084,-0.0096,-0.0125,-0.0107,-0.0116,-0.0124,-0.0119,-0.0122,-0.0116,-0.0102,-0.0101,-0.0093,-0.013,-0.0117,-0.01,-0.0101,-0.0101,-0.0102,0,0.0124,0.0104,0.0066,0.0025,0.0014,-0.0013,-0.0058,-0.0087,-0.0125,-0.0138,-0.0162,-0.0167,-0.0188,-0.0166,-0.017,-0.0163,-0.0145,-0.0135,-0.0134,-0.0131,-0.0108,-0.0069,-0.0106,-0.0106,-0.0105,-0.0105,-0.0105,0,0.0117,0.0073,0.0046,0.0031,-0.0014,-0.0036,-0.0062,-0.0102,-0.013,-0.0169,-0.0189,-0.0211,-0.0221,-0.0213,-0.0185,-0.0178,-0.0179,-0.017,-0.0153,-0.0151,-0.0142,-0.0138,-0.0175,-0.0175,-0.0176,-0.0176,-0.0176,0,0.0094,0.0067,0.0042,0.0024,-0.0018,-0.0044,-0.0092,-0.012,-0.0162,-0.0196,-0.0211,-0.0236,-0.0231,-0.0228,-0.0201,-0.0184,-0.0192,-0.0165,-0.0158,-0.015,-0.0148,-0.0143,-0.0139,-0.0175,-0.0175,-0.0175,-0.0175,0,0.0082,0.0069,0.0032,-0.0007,-0.0022,-0.0053,-0.0108,-0.0142,-0.0174,-0.0218,-0.023,-0.0256,-0.0251,-0.0237,-0.0222,-0.0206,-0.0189,-0.0177,-0.016,-0.015,-0.0145,-0.0143,-0.0167,-0.0167,-0.0167,-0.0167,-0.0168,0,0.0069,0.0054,0.0016,-0.0007,-0.0027,-0.0071,-0.0104,-0.0147,-0.0178,-0.0226,-0.0245,-0.0258,-0.0266,-0.0243,-0.0228,-0.0193,-0.0183,-0.0174,-0.0174,-0.0159,-0.0149,-0.0146,-0.0144,-0.0168,-0.0168,-0.0168,-0.0168,0,0.0041,0.0036,0.001,-0.0025,-0.006,-0.0104,-0.0147,-0.0167,-0.0211,-0.0235,-0.0256,-0.026,-0.0258,-0.0242,-0.0216,-0.0189,-0.0187,-0.0175,-0.0174,-0.0174,-0.016,-0.0149,-0.0147,-0.0168,-0.0168,-0.0168,-0.0168,0,0.002,-0.0,-0.0023,-0.0056,-0.0091,-0.0128,-0.0152,-0.0184,-0.0215,-0.025,-0.0252,-0.0256,-0.0259,-0.0239,-0.0216,-0.0196,-0.0189,-0.0181,-0.018,-0.0179,-0.0191,-0.0175,-0.0192,0,0,0,0,0,-0.0006,-0.0027,-0.0057,-0.0092,-0.0117,-0.0135,-0.018,-0.0197,-0.0222,-0.0233,-0.0243,-0.0237,-0.0226,-0.0226,-0.0205,-0.0218,-0.0188,-0.0194,-0.0177,-0.017,-0.017,-0.0183,0,0,0,0,0,0,-0.0031,-0.0055,-0.0064,-0.0105,-0.0123,-0.0161,-0.0184,-0.0202,-0.0207,-0.0222,-0.0212,-0.0222,-0.0205,-0.0223,-0.0196,-0.0195,-0.0182,-0.019,-0.019,-0.017,-0.017,-0.017,-0.0183,0,0,0,0,0]}]]